Change the Weather History Date:

Monday, August 25, 2014

  Actual Average Record
Temperature  
Mean Temperature 80 °F 82 °F  
Max Temperature 88 °F 92 °F 104 °F (1938)
Min Temperature 71 °F 72 °F 60 °F (1969)
Degree Days  
Heating Degree Days 0 0  
Month to date heating degree days 0 0  
Since 1 June heating degree days 0 0  
Since 1 July heating degree days 0 0  
Cooling Degree Days 15 17  
Month to date cooling degree days 451 425  
Year to date cooling degree days 1836 1871  
Since 1 June cooling degree days 1442 1431  
Growing Degree Days 30 (Base 50)    
Moisture  
Dew Point 63 °F    
Average Humidity 67    
Maximum Humidity 94    
Minimum Humidity 40    
Precipitation  
Precipitation 0.00 in - 0.29 in (2008)
Sea Level Pressure  
Sea Level Pressure 29.99 in    
Wind  
Wind Speed 10 mph (NE)    
Max Wind Speed 20 mph    
Max Gust Speed 24 mph    
Visibility 10 miles    
Events      
T = Trace of Precipitation, MM = Missing Value Source: NWS Daily Summary

Daily Weather History Graph

Daily Weather History Graph

Search for Another Location

Airport or City:

Trip Planner

Search our weather history database for the weather conditions in past years. The results will help you decide how hot, cold, wet, or windy it might be!

Date:

Astronomy

Aug. 25, 2014 Rise Set
Actual Time 7:08 AM EDT 8:08 PM EDT
Civil Twilight 6:43 AM EDT 8:33 PM EDT
Nautical Twilight 6:13 AM EDT 9:03 PM EDT
Astronomical Twilight 5:42 AM EDT 9:34 PM EDT
Moon 7:09 AM EDT (8/25) 8:03 PM EDT (8/25)
Length of Visible Light 13h 50m
Length of Day
13h 00m
New Moon, 0% of the Moon is Illuminated
Aug 25
New Moon
Sep 2
First Quarter
Sep 8
Full
Sep 15
Last Quarter
Sep 24
New

Hourly Weather History & Observations

Time (EDT) Temp. Heat Index Dew Point Humidity Pressure Visibility Wind Dir Wind Speed Gust Speed Precip Events Conditions
1:53 AM 77.0 °F - 73.9 °F 90% 29.97 in 10.0 mi ENE 6.9 mph - N/A   Mostly Cloudy
2:53 AM 75.9 °F - 72.0 °F 87% 29.97 in 10.0 mi ENE 8.1 mph - N/A   Clear
3:53 AM 75.0 °F - 69.1 °F 82% 29.97 in 10.0 mi ENE 9.2 mph - N/A   Clear
4:53 AM 73.9 °F - 68.0 °F 82% 29.98 in 10.0 mi NE 6.9 mph - N/A   Clear
5:53 AM 73.0 °F - 66.9 °F 81% 29.99 in 10.0 mi NE 9.2 mph - N/A   Partly Cloudy
6:53 AM 72.0 °F - 66.9 °F 84% 30.00 in 10.0 mi NE 9.2 mph - N/A   Clear
8:53 AM 73.9 °F - 64.0 °F 71% 30.02 in 10.0 mi ENE 16.1 mph 20.7 mph N/A   Clear
10:53 AM 80.1 °F 81.1 °F 61.0 °F 52% 30.03 in 10.0 mi ENE 17.3 mph 23.0 mph N/A   Clear
11:53 AM 82.9 °F 83.7 °F 62.1 °F 49% 30.03 in 10.0 mi NE 15.0 mph 21.9 mph N/A   Clear
12:53 PM 84.0 °F 84.4 °F 61.0 °F 46% 30.02 in 10.0 mi NNE 12.7 mph - N/A   Clear
1:53 PM 84.9 °F 85.4 °F 62.1 °F 46% 30.00 in 10.0 mi NE 16.1 mph 23.0 mph N/A   Clear
2:53 PM 86.0 °F 86.1 °F 61.0 °F 43% 29.98 in 10.0 mi ENE 9.2 mph 23.0 mph N/A   Clear
3:53 PM 87.1 °F 86.7 °F 60.1 °F 40% 29.97 in 10.0 mi East 11.5 mph 21.9 mph N/A   Clear
4:53 PM 88.0 °F 88.4 °F 62.1 °F 42% 29.96 in 10.0 mi NE 9.2 mph 18.4 mph N/A   Partly Cloudy
5:53 PM 88.0 °F 88.4 °F 62.1 °F 42% 29.96 in 10.0 mi North 10.4 mph - N/A   Scattered Clouds
6:53 PM 84.9 °F 85.0 °F 61.0 °F 44% 29.96 in 10.0 mi NE 10.4 mph - N/A   Clear
7:53 PM 82.9 °F 82.1 °F 55.9 °F 39% 29.96 in 10.0 mi NE 10.4 mph - N/A   Clear
8:53 PM 79.0 °F - 55.9 °F 45% 29.97 in 10.0 mi NE 8.1 mph - N/A   Clear
11:53 PM 72.0 °F - 59.0 °F 64% 30.02 in 10.0 mi ENE 6.9 mph - N/A   Clear